Weather in Surgod

Russia / Republic of Mordovia     54°02′24″N   43°05′16″E
temp.,
°C
wind,
m/s
gust,
m/s
humid.,
%
clouds,
%
prec.,
mm/h
press.,
hPa
HPBL,
m
5 august, thu
thu500:00+16nw3367100 0.0 101749
03:00+15nnw226837 0.0 101718
06:00+16nnw226299 0.0 101890
09:00+20nne115052 0.0 1018331
12:00+25n12375 0.0 10171817
15:00+25ese1237100 0.0 10172310
18:00+23sse124641 0.0 101624
21:00+21se3548100 0.0 101695
6 august, fri
fri600:00+18se4858100 0.0 1016139
03:00+18sse41058100 0.0 1016208
06:00+18s41059100 0.0 1017273
09:00+22sse59515 0.0 1016467
12:00+28s67355 0.0 10151624
15:00+29s673213 0.0 10142500
18:00+27sse5940100 0.0 1013387
21:00+22se613527 0.0 1013268
7 august, sat
sat700:00+21sse615487 0.0 1013336
03:00+20sse51449100 0.0 1013309
06:00+21s4134797 0.0 1014345
09:00+23s51141100 0.0 1014392
12:00+25sse374299 0.0 1014308
15:00+30sse562951 0.0 10141626
18:00+28se473713 0.0 1014354
21:00+23se41147100 0.0 1014179
8 august, sun
sun800:00+22se5114392 0.0 1014187
03:00+20sse494879 0.0 1014130
06:00+20se394695 0.0 1014159
09:00+28s573197 0.0 1013493
12:00+31s5626100 0.0 1013839
15:00+30s0131100 0.0 1014226
18:00+28sse2239100 0.0 101325
21:00+25ssw3737100 0.0 1014125
9 august, mon
mon900:00+23sw3448100 0.0 101587
03:00+19nw346696 0.0 101562
06:00+19nne24775 0.0 1015119
09:00+25n455190 0.0 1014662
12:00+28n434096 0.0 10141294
15:00+29n443562 0.0 10131587
18:00+27n46390 0.0 1013599
21:00+20n48580 0.0 1013130